Location: Lewisville
(33.0462°N, 96.9942°W)
Time: 06:44:42
(UTC-05:00)

Hubble Space Telescope - Pass Details

Date: 29 August 2021
Orbit: 535 x 539 km, 28.5° (Epoch: 27 September)

Event Time Altitude Azimuth Distance (km) Brightness Sun altitude
Exits shadow 05:24:13 43° 189° (S) 750 1.2 -19.9°
Maximum altitude 05:24:22 43° 183° (S) 747 1.2 -19.9°
Drops below altitude 10° 05:28:16 10° 111° (ESE) 1,774 4.0 -19.2°
Sets 05:30:35 0° 104° (ESE) 2,663 5.1 -18.7°
